Weather Roundup
Issued by NWS Chicago, IL

Home | Current Version | Previous Version | Text Only | Print | Product List | Glossary Off
Versions: 1 2 3 4 5 6 7 8 9 10 11 12 13 14 15 16 17 18 19 20 21 22 23 24 25 26 27 28 29 30 31 32 33 34 35 36 37 38 39 40 41 42 43 44 45 46 47 48 49 50

000
NZUS59 KLOT 250000
HRRLOT

CHICAGO AREA WEATHER ROUNDUP
NATIONAL WEATHER SERVICE CHICAGO/ROMEOVILLE IL
700 PM CDT FRI OCT 24 2014

NOTE: "FAIR" INDICATES FEW OR NO CLOUDS BELOW 12,000 FEET WITH NO
SIGNIFICANT WEATHER AND/OR OBSTRUCTIONS TO VISIBILITY.

* THESE STATIONS ARE NOT UNDER NWS QUALITY CONTROL. THEY ALSO MAY NOT
  REPORT WEATHER SUCH AS PRECIPITATION OR FOG.

ILZ005-006-012>014-019>023-250100-
NORTHEAST ILLINOIS

CITY           SKY/WX    TMP DP  RH WIND       PRES   REMARKS
OHARE          MOCLDY    61  46  57 S6        29.94S
6HR MIN TEMP:  60; 6HR MAX TEMP:  67;

MIDWAY         MOCLDY    65  46  50 CALM      29.95S
6HR MIN TEMP:  63; 6HR MAX TEMP:  68;

AURORA         PTCLDY    55  44  66 CALM      29.95F
6HR MIN TEMP:  54; 6HR MAX TEMP:  69;

WAUKEGAN       MOCLDY    50  48  93 CALM      29.94S FOG
6HR MIN TEMP:  50; 6HR MAX TEMP:  62;

DUPAGE AIRPORT PTCLDY    58  47  66 S5        29.94F
6HR MIN TEMP:  58; 6HR MAX TEMP:  69;

WHEELING       MOCLDY    59  45  59 S3        29.96S
6HR MIN TEMP:  59; 6HR MAX TEMP:  69;

NORTHERLY IS     N/A     64  46  52 S6          N/A
$$

WIZ051-052-058>065-066-070>072-250100-
SOUTHEAST WISCONSIN

CITY           SKY/WX    TMP DP  RH WIND       PRES   REMARKS
MILWAUKEE      MOCLDY    54  50  86 S6        29.94S
6HR MIN TEMP:  52; 6HR MAX TEMP:  62;

KENOSHA*       CLOUDY    53  50  89 SE5       29.95S FOG
RACINE*        MOCLDY    53  50  89 S5        29.96S FOG
WAUKESHA       PTCLDY    54  48  82 S3        29.95S
$$

INZ001>003-010>013-019-020-250100-
NORTHWEST INDIANA

CITY           SKY/WX    TMP DP  RH WIND       PRES   REMARKS
GARY*          MOCLDY    52  48  87 CALM      29.97S
MICHIGAN CITY* NOT AVBL
RENSSELAER*    NOT AVBL
$$

LMZ740>746-250100-
SOUTHERN LAKE MICHIGAN

STATION/POSITION TIME  SKY/WX   TEMP WIND        PRES    VSBY
                                AIR  DIR/SP/G
                 (UTC)          (F)  (DEG/KT/KT) (MB)    (MI)
HARRISON CRIB    2300            58  160/ 10/ 13   N/A
BURNHAM HARBOR   0000            64  200/  4/  8   N/A
CALUMET HARBOR   2300            63  160/  3/  4 1013.2F
BURNS HARBOR     NOT AVBL
MICHIGAN CITY    2300            59   90/  2/  2   N/A
$$

ABBREVIATIONS USED IN REMARKS
   TC - TEMPERATURE IN CELSIUS
  WCI - WIND CHILL INDEX
   HX - HEAT INDEX
  VSB - VISIBILITY
$$



USA.gov is the U.S. government's official web portal to all federal, state and local government web resources and services.